SCP
0 0 0 0 0 0 0 0 0 0 0 0 0 0 0 0 0 0 0 0 0 0 0 0 0 0 0 0 0 0 0 0 0 0 0 0 0 0 0 0 0 0 0 0 0 0 0 0 0
0 0 0 0 0 0 0 0 0 0 0 0 0 0 0 0 0 0 0 0 0 0 0 0 0 0 0 0 0 0 0 0 0 0 0 0 0 0 0 0 0 0 0 0 0 0 0 0 0
0 0 0 0 0 0 0 0 0 0 0 0 0 0 0 0 0 0 0 0 0 0 0 0 0 0 0 0 0 0 0 0 0 0 0 0 0 0 0 0 0 0 0 0 0 0 0 0 0
0 0 0 0 0 0 0 0 0 0 0 0 0 0 0 0 0 0 0 0 0 0 0 0 0 0 0 0 0 0 0 0 0 0 1 0 0 0 0 0 0 0 0 0 0 0 0 0 0
0 0 0 0 0 0 0 0 0 0 0 0 0 0 0 0 0 0 0 1 0 0 0 0 1 1 1 0 0 0 0 0 0 0 0 0 0 0 0 0 0 0 0 0 0 0 0 0 0
0 0 0 0 0 0 0 0 0 0 0 0 0 0 0 0 0 0 1 1 1 1 1 1 1 1 1 1 1 0 0 0 0 0 0 0 0 0 0 0 0 0 0 0 0 0 0 0 0
0 0 0 0 0 0 0 0 0 0 0 0 0 0 0 0 0 0 1 1 1 1 1 1 1 1 1 1 1 1 0 0 0 0 0 0 0 1 1 1 1 1 0 0 0 0 0 0 0
0 0 0 0 0 0 0 0 0 0 0 0 0 0 0 0 0 0 0 1 1 1 1 1 1 1 1 1 1 1 1 1 0 0 0 1 1 1 1 1 1 1 1 1 1 1 1 1 1
0 0 0 0 0 0 0 0 0 0 0 0 0 1 1 1 0 0 0 1 1 1 1 1 1 1 1 1 1 1 1 1 1 1 1 1 1 1 1 1 1 1 1 1 1 1 1 1 1
0 0 0 0 0 0 0 0 0 0 0 0 1 1 2 1 1 0 0 1 1 2 2 1 1 1 1 1 1 1 1 1 1 1 1 1 1 1 1 1 2 2 1 1 1 1 1 1 1
0 0 0 0 0 0 0 0 0 0 0 0 1 2 2 1 1 1 1 1 2 2 2 2 2 2 1 1 1 1 1 1 1 2 2 2 2 1 1 2 2 2 2 2 2 2 2 1 1
0 0 0 0 0 0 0 0 0 0 0 1 1 2 2 2 1 1 1 2 2 3 3 4 4 4 3 2 2 2 2 2 2 2 2 2 2 2 2 2 3 3 2 2 2 2 2 2 2
0 0 0 0 0 0 0 0 0 0 0 1 1 2 2 2 2 2 2 3 3 4 4 6 7 7 5 4 3 3 3 3 3 3 3 3 3 3 3 3 3 3 3 3 3 3 2 2 2
0 0 0 0 0 0 0 0 0 0 1 2 4 5 5 5 5 4 4 4 5 5 6 7 9 8 6 5 4 4 4 3 3 4 4 4 4 4 4 4 4 4 4 4 4 4 3 3 2
0 0 0 0 0 0 0 0 0 1 2 5 8 9 9 9 10 9 8 8 8 7 6 7 8 7 6 5 5 4 4 4 4 4 5 5 5 6 6 5 5 5 5 5 5 4 4 3 3
0 0 0 0 0 0 0 0 0 1 4 6 9 9 9 10 10 11 10 9 8 7 6 6 6 5 5 5 5 5 4 4 5 5 6 7 7 7 7 6 6 6 7 6 5 5 4 4 3
0 0 0 0 0 0 0 0 1 2 4 6 7 6 6 6 7 8 8 7 6 5 5 5 5 5 5 5 5 5 5 5 5 6 7 8 8 8 8 7 6 7 7 7 6 5 5 5 4
0 0 0 0 0 0 0 0 1 2 3 4 5 5 5 4 4 5 5 5 4 4 4 4 4 4 5 5 5 5 5 5 5 6 7 8 8 8 8 7 7 7 7 7 6 6 6 6 6
0 0 0 0 0 0 0 0 0 1 2 3 5 6 5 5 4 3 3 3 3 4 4 4 4 4 4 4 4 5 5 5 5 6 6 7 7 8 8 8 8 7 7 7 7 8 8 8 8
0 0 0 0 0 0 0 0 0 1 2 4 5 5 5 5 4 3 2 2 2 3 3 3 4 4 4 4 4 5 5 6 6 7 7 8 8 8 8 8 8 7 7 8 8 8 9 9 9
0 0 0 0 0 0 0 0 0 1 3 4 5 4 4 4 3 2 1 1 2 2 2 3 4 4 4 4 4 4 5 6 6 7 7 8 8 8 9 8 7 7 7 7 7 7 7 8 8
0 0 0 0 0 0 0 0 1 2 4 4 3 3 2 2 2 1 1 1 1 1 1 2 3 4 4 4 3 3 4 4 5 5 6 7 8 8 8 7 7 6 5 5 6 6 6 6 5
0 0 0 0 0 0 0 0 1 2 3 2 2 1 1 1 0 0 0 0 0 1 1 1 2 3 3 3 3 3 3 3 3 4 4 5 6 6 6 5 5 4 4 4 4 5 4 4 3
0 0 0 0 0 0 0 0 1 1 2 2 1 1 0 0 0 0 0 0 0 1 1 1 2 2 3 3 3 3 3 3 3 3 3 4 4 5 4 4 4 3 3 3 3 3 3 2 2
0 0 0 0 0 0 0 0 0 1 1 1 1 1 0 0 0 0 1 1 1 1 1 2 2 3 3 3 4 4 4 4 3 3 3 3 4 4 3 3 3 3 3 2 2 2 2 2 1
0 0 0 0 0 0 0 0 0 1 1 1 1 0 0 0 0 0 1 1 1 1 2 3 4 4 3 3 3 4 4 4 3 3 3 3 3 3 3 2 2 2 2 2 1 1 1 1 1
0 0 0 0 0 0 0 0 1 1 1 0 0 0 0 0 0 0 0 0 1 1 3 4 4 3 3 2 2 3 3 3 3 3 3 3 3 2 2 2 1 1 1 1 1 1 1 1 1
0 0 0 0 0 0 0 0 0 1 0 0 0 0 0 0 0 0 0 0 1 2 3 4 4 3 2 2 1 1 1 1 2 2 2 2 2 1 1 1 1 1 1 1 1 1 1 1 1
0 0 0 0 0 0 0 0 0 0 0 0 0 0 0 0 0 0 0 1 1 2 3 3 3 2 2 1 1 1 1 1 1 1 1 1 1 1 1 1 1 1 0 0 0 0 0 1 1
0 0 0 0 0 0 0 0 0 0 0 0 0 0 0 0 0 0 0 1 1 2 3 3 2 2 2 2 1 1 0 0 0 0 0 0 0 1 1 1 1 1 0 0 0 0 0 0 0
Wind_Speed
10 11 9 8 7 3 5 8 13 16 15 13 12 8 8 16 13 8 11 18 24 21 20 18 16 15 14 13 13 13 13 13 13 12 10 9 8 7 6 6 6 6 6 6 6 6 7 7 6
11 14 10 7 6 3 4 10 16 13 9 7 7 6 11 15 11 11 11 19 23 20 18 17 17 15 14 12 12 13 12 12 12 11 10 9 7 6 6 6 6 6 5 5 5 5 5 5 4
13 15 8 8 3 4 3 12 12 11 8 6 5 11 10 8 8 9 12 18 21 18 16 17 17 16 15 13 12 12 12 12 12 11 10 9 8 7 7 6 6 5 5 5 4 4 4 4 4
9 8 9 10 5 9 10 12 8 10 9 6 5 11 10 6 5 11 15 18 20 18 17 17 15 15 15 14 13 13 12 12 11 10 10 9 9 8 7 7 6 5 4 4 4 5 5 5 4
9 8 11 10 5 10 10 8 5 8 7 8 5 13 10 7 9 14 14 19 18 17 17 17 15 14 14 14 13 12 12 11 10 9 9 9 9 9 9 8 7 6 5 5 5 5 5 5 5
7 9 11 9 5 7 9 6 1 5 5 3 3 10 10 10 11 14 15 17 16 18 18 15 16 15 14 14 13 12 11 11 10 9 9 8 8 8 8 9 8 8 7 6 6 6 6 6 7
10 11 14 14 3 6 6 1 2 4 4 7 6 6 12 13 13 14 14 15 16 18 18 14 14 13 14 14 13 12 12 11 11 10 10 10 10 10 10 10 10 9 9 8 8 8 8 8 9
9 10 15 14 5 9 7 4 3 2 4 5 4 8 13 14 14 15 13 13 16 16 18 15 14 13 12 12 13 13 13 12 12 12 11 11 11 12 13 12 12 12 11 10 10 11 12 11 12
11 10 12 12 8 11 9 6 3 1 3 3 2 10 17 18 16 15 13 11 14 15 15 16 16 14 13 13 14 13 12 12 11 11 12 11 9 11 12 15 16 16 14 14 13 14 14 14 14
9 10 15 9 10 10 8 6 7 4 5 6 6 16 20 17 15 15 14 13 13 14 15 13 14 13 11 11 11 9 10 10 10 9 11 10 9 9 10 13 17 18 18 17 16 16 15 14 10
12 15 16 13 9 8 8 10 7 6 5 11 9 18 17 16 14 13 13 13 11 12 12 12 11 12 11 6 9 7 7 8 11 12 11 9 7 7 7 5 10 11 14 11 11 12 10 10 8
14 14 12 11 11 10 10 10 9 7 6 12 10 14 14 14 13 13 13 13 12 11 13 12 10 10 8 7 7 7 7 6 7 9 9 7 5 5 5 3 5 7 7 8 7 6 9 9 9
10 11 16 12 11 11 12 11 11 7 4 8 6 10 10 12 12 12 12 13 13 10 11 11 9 8 5 4 3 5 6 6 7 6 7 8 6 7 7 4 4 4 4 5 6 6 4 5 5
11 9 11 12 14 12 11 11 14 10 4 4 4 5 6 8 12 12 12 11 12 10 8 8 11 9 7 6 4 4 5 4 6 6 9 11 9 8 6 5 5 5 5 4 5 6 6 6 5
10 12 15 17 16 13 9 12 15 9 4 4 8 11 15 12 4 8 10 10 11 11 10 7 10 10 9 9 9 7 8 9 8 7 8 10 11 9 6 5 4 5 5 4 3 4 4 4 4
11 15 18 19 15 8 5 10 4 2 3 6 7 8 9 9 9 6 6 7 7 8 8 8 9 11 11 9 8 8 9 10 8 7 7 9 10 8 6 6 6 5 4 2 2 2 3 4 4
16 17 18 17 11 6 6 7 4 3 4 5 4 5 6 3 1 1 2 3 4 4 4 5 6 6 7 8 8 9 8 8 7 6 6 7 9 9 8 6 6 5 4 4 5 4 4 5 5
11 13 12 9 10 5 5 10 5 8 5 3 4 4 4 3 2 1 3 4 4 5 4 4 5 5 5 5 5 6 8 7 7 7 7 7 6 8 7 6 7 6 6 6 6 6 5 5 4
13 14 13 10 3 2 5 12 15 10 8 6 5 5 5 3 4 2 3 4 5 4 3 4 4 3 2 4 6 6 6 5 6 7 8 8 7 6 4 5 5 5 6 6 7 6 7 6 4
11 10 11 12 7 5 9 12 15 18 11 7 6 5 4 6 6 6 6 5 4 5 6 6 6 4 3 3 3 5 7 6 4 4 5 6 7 6 7 6 6 5 5 7 7 7 5 5 5
10 10 11 13 14 14 17 19 20 20 8 9 6 5 5 6 8 9 9 8 7 5 5 5 4 3 4 5 5 6 6 6 7 8 7 8 9 9 8 7 6 6 6 7 7 7 9 6 5
8 10 13 12 14 15 18 17 17 6 12 11 9 7 6 4 3 2 1 2 4 4 5 4 3 4 5 6 8 10 9 9 9 7 7 7 8 8 8 8 7 6 6 6 6 6 4 5 4
9 12 13 16 16 18 18 17 14 4 12 10 7 7 6 5 3 3 3 3 4 4 4 4 5 4 5 6 7 8 10 10 9 9 9 8 7 6 7 7 6 6 5 4 4 2 2 1 2
7 10 15 17 15 17 11 12 6 8 9 11 9 9 9 7 6 5 5 4 3 3 3 4 5 6 6 5 6 7 10 11 12 12 10 7 4 5 7 7 6 6 5 6 5 4 4 3 4
6 8 9 10 6 3 2 8 5 11 10 11 10 8 5 5 5 4 4 3 3 4 4 3 4 5 6 6 6 6 8 11 12 12 10 7 5 5 7 8 7 6 7 7 6 6 6 6 5
6 8 8 9 11 12 11 10 0 11 8 5 2 2 4 6 6 4 3 3 3 4 3 2 3 5 6 7 7 7 8 8 9 9 8 6 3 3 4 6 6 7 7 6 6 5 5 4 4
7 7 9 9 13 15 10 8 7 9 5 1 3 6 7 6 7 8 5 3 4 4 3 3 3 4 5 6 7 7 8 9 9 8 5 3 2 3 3 2 3 4 5 5 4 3 4 4 4
8 9 7 7 9 11 12 11 6 3 2 3 6 8 9 9 10 8 5 6 5 4 2 3 1 0 2 4 6 6 7 8 7 4 1 1 2 2 3 3 2 1 2 2 2 3 3 4 4
8 9 9 8 9 11 14 11 9 10 8 8 9 9 10 12 12 9 6 5 4 2 1 2 3 4 3 4 5 5 5 5 5 5 5 5 4 3 3 3 2 1 1 1 1 2 4 4 4
10 9 10 10 11 12 14 13 11 6 8 9 10 8 8 8 9 7 6 4 4 3 2 4 5 5 5 3 3 3 3 4 5 6 6 6 5 4 3 2 1 1 1 1 1 1 4 4 4
Wind_Direction
245 247 239 254 247 246 288 83 63 59 63 56 43 27 37 50 45 77 120 122 117 126 131 134 136 135 137 143 150 150 150 147 145 144 140 135 131 127 126 122 117 112 110 109 107 106 107 110 114
264 258 250 248 249 56 302 78 73 65 66 99 96 43 56 65 59 104 120 118 122 128 137 139 140 137 135 136 144 151 153 151 147 143 139 140 144 147 149 147 139 130 125 126 128 125 123 128 135
260 261 264 249 260 129 122 80 86 93 78 43 79 74 50 50 85 122 126 129 124 129 136 134 143 139 138 139 142 148 151 151 150 147 147 151 157 162 160 157 154 150 146 144 146 149 157 166 172
269 251 234 258 318 57 74 97 120 115 105 68 22 80 75 38 73 115 129 133 124 133 134 137 147 143 143 144 145 148 153 155 157 156 158 165 171 173 171 169 172 175 179 180 178 181 187 196 203
256 261 262 285 18 69 77 86 87 77 58 53 24 89 86 80 89 112 139 129 131 138 132 142 149 149 148 150 152 156 158 160 163 167 173 181 187 186 186 186 190 193 201 212 202 196 206 210 218
267 274 290 311 35 65 82 87 315 83 76 81 10 96 97 113 120 132 142 135 138 133 130 141 148 153 154 157 160 166 168 167 171 178 184 188 189 193 194 198 201 203 205 209 204 211 222 225 228
278 297 296 295 304 98 63 54 75 40 43 45 12 78 119 134 133 140 143 144 141 133 130 145 150 156 161 164 166 169 172 175 182 189 194 199 203 207 208 210 214 214 207 209 215 224 233 238 239
280 292 291 295 311 82 70 335 66 330 96 68 342 63 128 134 142 140 147 149 141 139 139 150 154 158 166 168 172 176 179 183 188 195 201 208 215 219 218 216 218 220 215 215 219 226 234 240 244
268 267 277 305 7 71 53 349 356 152 121 152 132 82 121 138 144 145 154 156 145 147 148 159 158 161 171 176 174 180 188 195 198 204 213 217 225 224 219 223 216 215 217 218 221 226 234 238 243
236 260 274 330 354 13 24 331 320 282 218 184 149 114 126 139 150 158 162 165 158 152 157 165 163 164 181 187 167 184 191 194 205 211 207 213 226 238 231 212 214 215 216 217 222 227 232 235 245
247 259 283 311 337 342 325 313 320 303 348 45 79 128 135 142 157 166 168 169 166 161 166 169 166 162 185 196 167 189 199 192 199 217 211 211 224 238 238 206 202 211 214 218 224 226 232 234 236
251 275 290 295 302 304 296 301 305 310 40 67 76 124 139 151 166 175 171 172 169 179 177 177 171 167 189 198 191 188 200 198 200 200 210 217 219 244 238 211 196 200 209 207 216 209 218 229 240
248 267 274 274 275 270 271 280 280 277 49 68 92 133 152 164 169 178 170 175 170 186 184 168 163 165 182 226 247 213 207 205 201 202 206 218 219 227 233 221 214 230 224 192 206 224 231 251 258
281 272 277 282 273 269 262 263 270 257 126 86 104 132 163 169 170 170 168 175 168 181 202 180 173 175 187 207 231 249 237 225 240 224 210 211 217 222 222 215 208 220 241 236 210 207 210 218 227
267 278 269 256 243 242 251 259 257 264 108 102 88 63 44 30 83 158 164 165 162 179 204 197 184 187 199 214 220 230 235 239 232 234 222 208 212 216 211 216 218 220 234 245 255 247 237 234 234
251 255 256 253 227 211 220 266 271 59 98 103 99 93 70 41 33 44 108 136 163 193 201 198 205 200 200 213 221 230 234 235 237 233 225 217 221 219 214 222 223 218 223 229 237 251 269 268 262
241 242 252 251 186 203 239 270 132 92 87 103 120 126 120 115 127 93 128 182 202 226 222 208 233 233 213 219 228 239 245 248 253 248 234 221 217 218 212 223 225 218 223 225 233 228 226 244 254
302 284 260 243 139 149 277 290 236 163 169 191 170 157 143 158 158 281 272 245 227 233 233 242 257 283 312 303 277 259 259 260 261 266 270 262 238 224 218 224 218 217 227 224 217 221 223 230 237
313 311 321 320 87 119 281 285 286 261 206 210 188 168 173 162 125 177 249 249 231 225 231 248 266 289 313 310 307 299 289 279 271 268 270 275 275 266 246 254 248 229 237 241 232 223 222 223 209
287 289 286 277 286 294 279 274 278 277 239 185 172 166 173 164 165 186 206 225 230 215 214 221 235 258 273 278 287 283 283 282 283 277 269 261 259 258 252 247 251 248 248 251 246 239 234 225 204
285 301 307 318 329 317 300 282 271 262 186 141 158 170 174 180 185 193 203 213 227 237 240 254 251 261 274 273 275 274 270 264 260 255 250 245 240 235 232 240 244 248 246 246 241 236 235 233 232
284 315 333 317 299 288 287 289 285 246 148 156 163 162 151 151 162 173 196 341 328 332 333 329 296 247 241 247 255 262 268 271 270 266 258 246 236 233 229 232 235 244 247 247 249 242 239 240 250
310 320 308 288 277 274 271 271 278 193 154 157 157 158 169 178 210 231 254 277 288 298 306 312 299 278 256 247 250 258 264 267 272 272 265 257 245 224 223 222 224 223 227 230 226 227 223 223 249
314 299 283 266 255 260 291 310 311 105 142 153 162 189 202 217 229 226 234 243 252 284 295 305 313 303 288 269 264 266 271 274 275 275 275 270 243 213 210 215 218 218 220 219 212 208 213 210 229
283 297 301 307 284 254 229 274 291 130 138 154 174 191 209 256 270 265 271 280 278 278 278 290 308 331 340 332 316 296 283 279 272 269 266 257 235 215 210 215 224 227 227 221 210 208 212 213 221
284 280 292 320 321 322 298 284 21 122 113 115 149 237 273 287 288 282 279 275 275 281 282 317 3 353 344 334 325 316 306 292 282 273 261 247 230 207 196 213 229 234 230 222 213 215 211 204 208
284 282 320 317 293 287 294 324 96 110 100 169 245 253 257 273 295 290 288 323 344 349 9 46 29 3 347 337 333 327 325 315 299 286 260 216 179 150 146 195 224 231 230 226 218 209 198 189 193
247 293 306 292 296 304 307 314 22 80 275 285 308 313 305 309 312 315 351 354 356 3 42 91 81 131 316 329 333 333 337 337 328 319 310 107 107 114 132 119 119 157 207 200 185 187 190 179 171
248 241 265 285 294 299 298 302 322 322 325 331 320 325 339 338 337 343 346 344 344 341 136 185 218 208 239 290 322 334 347 355 14 33 50 51 46 34 52 70 85 118 210 191 186 174 158 147 140
270 278 291 287 284 283 285 290 304 344 339 330 327 333 343 336 324 317 323 338 336 315 249 237 238 227 236 267 310 329 351 14 38 51 47 38 27 6 352 347 329 273 222 188 199 134 116 115 99